User: anonymous   Login
Location: Goll?ig?dem
(16.6773°N, 80.7332°E)
Time: 14:41:15
(UTC+00:00)
Language:

GPS 2-17 Rocket1 - Orbit

View from above orbital plane
View from above orbital plane
View from above satellite
View from above satellite

Ground track
Ground track

The orbit data is extracted from the following two-line orbital elements,

1 22276U 92089B   25199.90523330  .00002662  00000-0  19703-3 0  9997
2 22276  20.2849  84.9696 0052290 138.8837 221.5544 14.94089714741758
Epoch (UTC): 18 July 2025 21:43:32
Eccentricity: 0.0052290
inclination: 20.2849°
perigee height: 549 km
apogee height: 621 km
right ascension of ascending node: 84.9696°
argument of perigee: 138.8837°
revolutions per day: 14.94089714
mean anomaly at epoch: 221.5544°
orbit number at epoch: 74175

The dashed part of the orbit path shows where the satellite is in the earth's shadow,  

DLR